Regional Weather Roundup
Issued by NWS Wakefield, VA

Home | Current Version | Previous Version | Graphics & Text | Print | Product List | Glossary On
Versions: 1 2 3 4 5 6 7 8 9 10 11 12 13 14 15 16 17 18 19 20 21 22 23 24 25 26 27 28 29 30 31 32 33 34 35 36 37 38 39 40 41 42 43 44 45 46 47 48 49 50
000
ASUS41 KAKQ 270010
RWRAKQ

REGIONAL WEATHER ROUNDUP
NATIONAL WEATHER SERVICE WAKEFIELD VA
800 PM EDT TUE AUG 26 2014

Note: "fair" indicates few or no clouds below 12,000 feet with no
significant weather and/or obstructions to visibility. * = Denotes
station may not report precipitation (e.g., rain,snow,etc.),
thunder or fog.

VAZ042-051-052>054-056-270100-
NORTHERN VIRGINIA

CITY           SKY/WX    TMP DP  RH WIND       PRES   REMARKS
WASH NATIONAL  PTCLDY    81  63  54 SE5       30.10S
DULLES         PTCLDY    77  62  59 S5        30.11R
FORT BELVOIR   CLEAR     73  67  83 CALM      30.10F
QUANTICO       PTCLDY    75  69  81 NW5       30.10S
FREDERICKSBRG* CLEAR     76  67  74 CALM      30.09S
STAFFORD*      CLEAR     72  72 100 CALM      30.14S
WARRENTON      CLEAR     73  70  90 CALM      30.10S
CULPEPER*      CLEAR    N/A N/A N/A CALM      30.11S
MANASSAS*      CLEAR     75  70  83 S3        30.10S
LEESBURG*      PTCLDY    77  68  73 W3        30.11S
WINCHESTER     CLEAR     72  61  68 CALM      30.12S
$$

VAZ048-049-060>072-079>083-270100-
CENTRAL AND SOUTH CENTRAL VIRGINIA...AND NORTH CENTRAL NORTH CAROLINA

CITY           SKY/WX    TMP DP  RH WIND       PRES   REMARKS
RICHMOND       PTCLDY    77  58  51 SE3       30.10R
CHESTERFIELD*  CLEAR     75  52  43 CALM      30.12R
HANOVER        CLEAR     72  64  76 E3        30.11S
TAPPAHANNOCK*  CLEAR     72  64  74 CALM      30.11R
CHARLOTTSVILLE CLEAR     73  63  70 CALM      30.12S
ORANGE*        CLEAR     70  64  83 CALM      30.13S
LOUISA*        CLEAR     70  66  88 CALM      30.10F
FARMVILLE*     PTCLDY    75  63  64 CALM      30.09S
SOUTH HILL*    PTCLDY    72  70  94 CALM      30.15S
ROANOKE RAPIDS PTCLDY    72  61  68 E3        30.09R
RALEIGH        MOCLDY    74  62  66 NE3       30.10S
$$

VAZ088>098-270100-
SOUTHEAST VIRGINIA

CITY           SKY/WX    TMP DP  RH WIND       PRES   REMARKS
NORFOLK        CLEAR     73  65  75 E8        30.09F
VIRGINIA BEACH PTCLDY    72  66  81 NE7       30.09S
NORFOLK NAVAL  PTCLDY    74  65  73 E7        30.11S
WEST POINT*    CLEAR     73  63  70 CALM      30.11S
NEWPORT NEWS   LGT RAIN  74  61  63 E7        30.10S
LANGLEY AFB    CLEAR     73  64  75 E8        30.10R
FORT EUSTIS    CLEAR     75  59  57 VRB5      30.09R
WILLIAMSBURG*  CLEAR     75  66  73 E5        30.11R
FRANKLIN*      CLEAR     70  61  73 E3        30.10R
WAKEFIELD      CLEAR     68  61  78 CALM      30.10R
$$

VAZ020-022-025-037-045-270100-
WESTERN AND SOUTHWEST VIRGINIA

CITY           SKY/WX    TMP DP  RH WIND       PRES   REMARKS
STAUNTON*      CLEAR     74  58  56 CALM      30.17R
HOT SPRINGS VA CLEAR     62  55  76 SE3       30.27S
LYNCHBURG      PTCLDY    67  62  84 CALM      30.14F
DANVILLE       PTCLDY    72  64  76 N5        30.11F
MARTINSVILLE   CLEAR     69  66  91 CALM      30.16S
ROANOKE        MOCLDY    73  60  63 SE5       30.16F
BLACKSBURG     PTCLDY    68  61  77 CALM      30.21S
DUBLIN*        PTCLDY    70  60  70 CALM      30.20S
MARION*        CLEAR    N/A N/A N/A CALM      30.22S
HILLSVILLE*    CLEAR     69  57  66 NE3       30.20S
RICHLANDS*     CLEAR     75  59  58 NE5       30.18F
WISE*          CLEAR     72  55  56 NE3       30.20R
ABINGDON*      CLEAR     78  60  53 E3        30.15S
$$

MDZ021>025-VAZ099-100-270100-
SOUTHERN MARYLAND AND THE DELMARVA PENINSULA

CITY           SKY/WX    TMP DP  RH WIND       PRES   REMARKS
PATUXENT RIVER PTCLDY    74  64  71 E3        30.09R
BAY BRIDGE APT   N/A     79  64  61 CALM      30.09S
LEONARDTOWN    CLEAR     73  63  68 CALM      30.12R
DOVER          CLEAR     71  65  79 SE5       30.10R
GEORGETOWN     CLEAR     69  61  75 SE6       30.12R
EASTON         CLEAR     81  63  54 CALM      30.14R
CAMBRIDGE      CLEAR     73  63  68 CALM      30.10R
SALISBURY      CLEAR     71  61  70 SE6       30.11R
OCEAN CITY     PTCLDY    72  66  81 SE5       30.11S
WALLOPS ISLAND CLEAR     72  66  81 SE7       30.11S
ACCOMACK*      NOT AVBL
$$

NCZ012>017-030>032-270100-
EASTERN NORTH CAROLINA

CITY           SKY/WX    TMP DP  RH WIND       PRES   REMARKS
ELIZABETH CITY CLEAR     73  66  78 N8        30.08S
AHOSKIE*       CLEAR     69  60  72 CALM      30.09S
EDENTON*       CLEAR     72  65  79 NE5       30.08R
CURRITUCK*     CLEAR     74  65  74 NE8       30.09S
KILL DEVIL HLS CLEAR     74  68  81 NE9       30.04F
MANTEO         CLEAR     74  69  83 N10G18    30.05F
CAPE HATTERAS  CLEAR     75  71  87 NE13G22   30.03R
GOLDSBORO      PTCLDY    76  68  74 N7        30.04F
WASHINGTON     CLEAR     73  65  74 NE3       30.07S
GREENVILLE     PTCLDY    73  63  68 NE3       30.08S
NEW BERN       CLEAR     76  65  68 N7        30.05S
WILMINGTON     CLEAR     76  64  66 N7        30.01F
$$

VAZ048-270100-
ELSEWHERE

CITY           SKY/WX    TMP DP  RH WIND       PRES   REMARKS
HARRISBURG PA  PTCLDY    75  65  70 CALM      30.09R
BALTIMORE      PTCLDY    78  63  59 S3        30.09S
ANNAPOLIS      CLEAR     78  68  71 CALM      30.09S
ANDREWS AFB    CLEAR     75  68  77 S5        30.10S
WILMINGTON DE  CLEAR     76  66  71 S13       30.10R
PHILADELPHIA   PTCLDY    81  64  56 S6        30.09R
WILDWOOD NJ*   CLEAR     70  61  73 SE6       30.12S
ATLANTIC CITY  CLEAR     72  63  73 S5        30.11R
HENDERSON NC   PTCLDY    72  64  76 CALM      30.10S
GREENSBORO     MOCLDY    73  60  63 NE9       30.11F
ROCKY MOUNT    PTCLDY    71  64  78 CALM      30.08S
FAYETTEVILLE   PTCLDY    76  63  64 NE6       30.06S
CHARLOTTE      PTCLDY    76  56  49 NE5       30.10R
$$

VAZ100-270100-
MARINE

STATION/POSITION TIME  TEMP    WIND        PRES    WAVE   SWELL
                       AIR SEA DIR/SP/G            HT/PER HT/PER
                 (UTC) (F)     (DEG/KT/KT) (MB)    (FT/S) (FT/S)
44066 TX TWR #4  0000   72 73  120/  8/  8 1019.2F   4/ 7   3/ 7
CAPE MAY NJ      0000   72 81  120/  3/  4 1019.0R
LEWES DE         0000   72 77  140/  4/  5 1019.2R
15NM E FENWICK I 0000   72 74              1019.2F   4/ 8
OCEAN-CITY-INLET 0000   73 76  130/  5/  8 1019.2S
WACHAPREAGUE VA  0000   73 79   80/  6/ 10 1019.3F
THOMAS POINT MD  0000   80 78   CALM  /  1 1020.0R
GOOSES REEF MD   0000   80      20/  2/  2 1019.6R
COVE POINT MD    0000   79     180/  5/  6 1019.0S
SOLOMONS ISLAND  0000      81                N/A
BISHOPS HEAD MD  0000   76 79  140/ 14/ 15 1018.8R
PINEY POINT MD   0000          160/  7/  8   N/A
POTOMAC MD       0000   78     160/  8/ 10 1018.6R
CAMBRIDGE MD     0000   79 78  120/  4/  4 1019.0R
LEWISETTA VA     0000   77 80  160/  4/  4 1018.9S
RAPPAHANNOCK LGT 0000           90/  9/ 11 1019.7F
STINGRAY PT      0000   76     120/ 12/ 14   N/A
YORK RVR RNG VA  0000   75     120/ 11/ 13 1018.8R
YORKTOWN VA      0000   76 79  110/  9/ 11 1019.0R
JAMESTOWN VA     0000   75     100/  4/  6   N/A
DOMINION TERM VA 0000   76      30/  2/  6 1019.3R
KIPTOPEKE VA     0000      81   80/  4/  5   N/A
CHES BAY BRIDGE  0000   73 78   50/ 11/ 13 1018.6F
CAPE HENRY VA    0000   73      50/ 12/ 14 1018.0F
CHESAPEAKE LGHT  2300   73      40/ 14/ 15 1019.5R
WILLOUBY STN VA  0000   74      90/ 10/ 12 1017.9S
S CRANEY ISL VA  0000           50/  7/  9 1018.9R
CAPE HENRY BUOY  0000      76                N/A     4/ 9   2/11
1ST LANDING BUOY 0000   74      60/ 10/ 14 1018.8F
CAPE CHARLES BUO 0000      77                N/A     4/ 9   3/ 9
OFFSHORE WE BUOY 0000      76                N/A     5/ 8   3/ 8
64NM E OF VA BCH 0000   77 78   50/ 14/ 17 1017.4F   6/ 9   5/ 9
DUCK PIER NC     0000   74 76   20/ 14/ 15 1017.2F
44056 DUCK FRF   0000                        N/A     5/ 8   2/11
OREGON INLET NC  0000   75 78   20/ 13/ 19 1017.2F
HATTERAS NC      0000   77 79   20/ 17/ 22 1017.1R
DIAMOND SHLS NC  0000   77      10/ 19/ 25 1015.4R   9/11   7/11
CAPE LOOKOUT NC  2300   77      20/ 16/ 21 1016.3F
$$



USA.gov is the U.S. government's official web portal to all federal, state and local government web resources and services.